User: anonymous   Login
Location: Cerbedi�res
(48.2182°N, 1.4849°W)
Time: 12:45:40
(UTC+00:00)
Language:

Cosmos 1862 Rocket - Orbit

View from above orbital plane
View from above orbital plane
View from above satellite
View from above satellite

Ground track
Ground track

The orbit data is extracted from the following two-line orbital elements,

1 18153U 87055B   21132.18509340  .00000082  00000-0  69777-5 0  9993
2 18153  82.5026 206.4926 0023030  70.4804 289.8896 14.83327130829598
Epoch (UTC): 12 May 2021 04:26:32
Eccentricity: 0.0023030
inclination: 82.5026°
perigee height: 603 km
apogee height: 635 km
right ascension of ascending node: 206.4926°
argument of perigee: 70.4804°
revolutions per day: 14.83327130
mean anomaly at epoch: 289.8896°
orbit number at epoch: 82959

The dashed part of the orbit path shows where the satellite is in the earth's shadow,  

DLR